Regional Weather Roundup
Issued by NWS

Home | Current Version | Previous Version | Text Only | Print | Product List | Glossary Off
Versions: 1 2 3 4 5 6 7 8 9 10 11 12 13 14 15 16 17 18 19 20 21 22 23 24 25 26 27 28 29 30 31 32 33 34 35 36 37 38 39 40 41 42 43 44 45 46 47 48 49 50

128
ASUS43 KMPX 240810
RWRMN
WEATHER ROUNDUP FOR MINNESOTA
NATIONAL WEATHER SERVICE TWIN CITIES/CHANHASSEN MN
300 AM CDT TUE APR 24 2018


NOTE: "FAIR" INDICATES FEW OR NO CLOUDS BELOW 12,000 FEET WITH NO
SIGNIFICANT WEATHER AND/OR OBSTRUCTIONS TO VISIBILITY. N/A MEANS
CURRENT SKY AND/OR WEATHER CONDITIONS ARE NOT AVAILABLE.

MNZ060>063-068>070-240900-
   Twin Cities Metro

CITY           SKY/WX    TMP DP  RH WIND       PRES   REMARKS
TWIN CITIES    FAIR      49  40  71 CALM      30.13S
ST PAUL        FAIR      46  39  76 CALM      30.13F
CRYSTAL        FAIR      44  37  76 CALM      30.12S
BLAINE         FAIR      43  37  81 CALM      30.12F
LAKEVILLE      FAIR      37  36  93 CALM      30.13S
EDEN PRAIRIE   FAIR      49  38  65 W3        30.12F
SOUTH ST PAUL  FAIR      45  36  72 CALM      30.12F
LAKE ELMO      FAIR      39  36  87 CALM      30.13S
$$
MNZ001>005-007-008-013>017-022>024-027-028-240900-
   Northwest Minnesota

CITY           SKY/WX    TMP DP  RH WIND       PRES   REMARKS
BEMIDJI        MOCLDY    38  29  71 NW6       30.19R
HALLOCK        FAIR      43  34  70 N8        30.28R
ROSEAU         CLOUDY    43  36  75 N9        30.25R
WARROAD        CLOUDY    43  34  70 NW7       30.25R
THIEF RVR FALL CLOUDY    46  33  60 N15       30.24R
CROOKSTON      FAIR      45  37  76 N14       30.25R
FOSSTON        CLOUDY    41  34  75 N8        30.21S
DETROIT LAKES  FAIR      46  34  61 N3        30.20S
MOORHEAD       CLOUDY    46  39  76 N14       30.21S
PARK RAPIDS    FAIR      39  32  76 N3        30.17S
MAHNOMEN       CLOUDY    44  35  71 N9        30.19S
$$
MNZ006-009>011-018-025>026-240900-
   North Central Minnesota

CITY           SKY/WX    TMP DP  RH WIND       PRES   REMARKS
BAUDETTE       CLOUDY    40  31  70 N9        30.21R
FLAG ISLAND    FAIR      37  30  75 N10       30.23R
INTL FALLS     FAIR      31  27  85 NE5       30.18S WCI  26
WASKISH        MOCLDY    36  30  80 W3        30.20R
BIG FORK       FAIR      30  27  86 CALM      30.17S
LONGVILLE      FAIR      34  28  80 CALM      30.16F
GRAND RAPIDS   FAIR      36  29  75 CALM      30.17F
CRANE LAKE     FAIR      27  25  93 CALM      30.20S
ORR            FAIR      30  25  80 CALM      30.15S
COOK           FAIR      30  27  86 CALM      30.16F
WALKER         FAIR      39  29  68 CALM      30.17S
$$
MNZ012-019>021-037-240900-
   Northeast Minnesota

CITY           SKY/WX    TMP DP  RH WIND       PRES   REMARKS
DULUTH         FAIR      47  29  49 N10       30.13S
ELY            FAIR      32  27  80 CALM      30.16S
HIBBING        FAIR      32  26  78 NW3       30.14F
EVELETH        FAIR      34  28  77 CALM      30.16S
DULUTH HARBOR  FAIR      46  34  61 E6        30.15R
TWO HARBORS    FAIR      52  32  46 N7        30.11S
SILVER BAY     FAIR      48  28  46 N5        30.11S
GRAND MARAIS     N/A     49  28  44 N16G30    30.09S
G MARAIS ARPRT FAIR      39  25  56 N13       30.14S
$$
MNZ029>031-032-039>041-046>048-054>057-064-240900-
   West Central Minnesota

CITY           SKY/WX    TMP DP  RH WIND       PRES   REMARKS
FERGUS FALLS   FAIR      48  36  61 NE3       30.15S
WHEATON        CLOUDY    48  43  81 CALM      30.20R
MORRIS         PTCLDY    45  37  76 W3        30.15S
ALEXANDRIA     FAIR      47  33  58 N5        30.16S
ELBOW LAKE     CLOUDY    47  37  67 N6        30.17R
WADENA         FAIR      43  32  65 N5        30.17S
GLENWOOD       FAIR      45  36  70 N7        30.16S
APPLETON       CLEAR     45  41  87 CALM      30.15S
BENSON         CLEAR     48  36  61 E3        30.17R
ORTONVILLE     CLOUDY    48  41  76 N6        30.16R
MADISON        CLEAR     45  41  87 N5        30.15S
WILLMAR        FAIR      43  37  81 NW3       30.17S
$$
MNZ033>034-036-042>043-049>051-058-059-240900-
   Central Minnesota

CITY           SKY/WX    TMP DP  RH WIND       PRES   REMARKS
ST CLOUD       FAIR      43  36  76 N6        30.12F
SAUK CENTRE    FAIR      45  34  66 CALM      30.14S
PAYNESVILLE    FAIR      39  37  93 CALM      30.15S
AITKIN         FAIR      32  28  86 CALM      30.13F
PINE RIVER     FAIR      37  28  70 CALM      30.19S
BRAINERD       FAIR      44  29  55 N5        30.15F
STAPLES        FAIR      39  30  70 NW3       30.16S
LONG PRAIRIE   FAIR      45  32  61 NW6       30.15S
LITTLE FALLS   FAIR      45  27  49 CALM      30.14F
LITCHFIELD     FAIR      45  39  81 NW5       30.14S
BUFFALO        FAIR      42  37  85 CALM      30.13F
MAPLE LAKE     FAIR      40  38  93 CALM      30.13F
HUTCHINSON     FAIR      42  41  98 CALM      30.14F FOG
$$
MNZ037-044-045-052-053-240900-
   East Central Minnesota

CITY           SKY/WX    TMP DP  RH WIND       PRES   REMARKS
PRINCETON      FAIR      37  36  93 N3        30.13S
MORA           FAIR      36  32  87 CALM      30.14F
CAMBRIDGE      FAIR      43  32  65 N3        30.13S
RUSH CITY      FAIR      37  34  90 CALM      30.13S
MOOSE LAKE     FAIR      34  32  93 NE3       30.12F
HINCKLEY       FAIR      36  32  87 CALM      30.13S
CLOQUET        FAIR      45  27  49 N8        30.13F
MCGREGOR       FAIR      41  32  70 CALM      30.15S
$$
MNZ071>073-080-081-089-090-097-098-240900-
   Southwest Minnesota

CITY           SKY/WX    TMP DP  RH WIND       PRES   REMARKS
MONTEVIDEO     CLEAR     45  36  70 CALM      30.15S
GRANITE FALLS  CLEAR     44  42  93 CALM      30.16S
CANBY          CLEAR     44  39  83 SW3       30.16S
MARSHALL       CLEAR     43  37  79 CALM      30.15S
REDWOOD FALLS  CLEAR     47  41  80 CALM      30.13F
OLIVIA         CLEAR     43  37  81 CALM      30.14R
PIPESTONE      PTCLDY   N/A N/A N/A CALM      30.15R
WINDOM         CLEAR     41  28  60 CALM      30.15F
WORTHINGTON    CLOUDY    42  38  85 SW3       30.16S
JACKSON        CLEAR     41  36  81 CALM      30.15F
TRACY          CLEAR     47  39  73 SW7       30.14S
SLAYTON        CLEAR     39  35  86 W3        30.16S
$$
MNZ065>067-074>077-082>085-091>093-240900-
   South Central Minnesota

CITY           SKY/WX    TMP DP  RH WIND       PRES   REMARKS
MANKATO        FAIR      48  41  76 W3        30.14F
NEW ULM        CLEAR     46  39  76 W5        30.14F
ST JAMES       CLOUDY    45  39  81 CALM      30.15F
FAIRMONT       CLEAR     42  36  79 NW3       30.15F
GLENCOE        FAIR      44  45 100 CALM      30.12F
OWATONNA       FAIR      39  37  93 CALM      30.13S
WASECA         FAIR      41  37  87 W5        30.14S
ALBERT LEA     FAIR      41  37  87 CALM      30.13F
$$
MNZ078>079-086>088-094>096-240900-
   Southeast Minnesota

CITY           SKY/WX    TMP DP  RH WIND       PRES   REMARKS
ROCHESTER      FAIR      42  35  76 SE3       30.13F
RED WING       FAIR      39  30  70 CALM      30.11F
STANTON        FAIR      40  37  88 S3        30.12S
DODGE CENTER   FAIR      46  36  66 NW3       30.12F
WINONA         FAIR      39  34  81 CALM      30.11F
AUSTIN         FAIR      41  37  87 CALM      30.12F
PRESTON        FAIR      47  33  56 CALM      30.13S
$$
ABBREVIATIONS USED IN REMARKS
   TC - TEMPERATURES IN CELSIUS
  WCI - WIND CHILL INDEX
   HX - HEAT INDEX
  VSB - VISIBILITY
$$




USA.gov is the U.S. government's official web portal to all federal, state and local government web resources and services.